"Pseudo-MPEC" for P221oBE

Created 2024 Nov 1 7:31:19 UT using Find_Orb

Click here for an explanation of pseudo-MPECs

 
 Astrometry: 
     P221oBE* C2024 10 30.40426302 49 17.683-02 01 38.08   ~AUBV 21.90wXNEOCPF52
     P221oBE  C2024 10 30.41620702 49 16.916-02 01 51.52   ~AUBV 21.28wXNEOCPF52
     P221oBE  C2024 10 30.42819602 49 16.136-02 02 05.37   ~AUBV 21.26wXNEOCPF52
     P221oBE  C2024 10 30.48065702 49 12.722-02 03 04.64   ~AUJ2 20.93GVNEOCPF51
     P221oBE  C2024 10 30.48147502 49 12.660-02 03 05.87   ~AUJ2 21.08GVNEOCPF51
     P221oBE KC2024 10 30.97010602 48 42.59 -02 12 20.5    ~AV0H 20.5 GVNEOCPL01
     P221oBE KC2024 10 30.97423002 48 42.31 -02 12 25.4    ~AV0H 21.2 GVNEOCPL01
     P221oBE KC2024 10 30.97792802 48 42.11 -02 12 29.6    ~AV0H 21.2 GVNEOCPL01
     P221oBE KC2024 10 31.28807 02 48 23.05 -02 18 15.6    ~AV7V 21.3 RVNEOCP691
     P221oBE KC2024 10 31.29286 02 48 22.73 -02 18 20.9    ~AV7V 21.2 RVNEOCP691
     P221oBE KC2024 10 31.29765 02 48 22.41 -02 18 26.2    ~AV7V 21.2 RVNEOCP691
     P221oBE KC2024 11 01.20505 02 47 26.47 -02 35 12.2    ~B16H 20.2 RVNEOCP691
     P221oBE KC2024 11 01.21050 02 47 26.15 -02 35 17.7    ~B16H 21.3 RVNEOCP691
     P221oBE KC2024 11 01.21594 02 47 25.81 -02 35 24.4    ~B16H 22.0 RVNEOCP691

Station data:
(691) Steward Observatory, Kitt Peak - Spacewatch  (N31.962174 W111.600327)
   US/Arizona.  Observer J. V. Scotti. 0.9-m f/3 reflector + CCD.
(F51) Pan-STARRS 1, Haleakala  (N20.707234 W156.255910)  US/Hawaii.
   Observers J. Bulger, T. Lowe, A. Schultz, M. Willman. Measurers K.
   Chambers, S. Chastel, T. de Boer, L. Denneau, J. Fairlamb, H. Flewelling,
   M. Huber, C.-C. Lin, E. Magnier, Y. Ramanjooloo, R. Wainscoat, R. Weryk.
   1.8-m Ritchey-Chrétien + CCD.
(F52) Pan-STARRS 2, Haleakala  (N20.707382 W156.255910)  US/Hawaii.
   Observers J. Bulger, T. Dukes, T. Lowe, A. Schultz, M. Willman. Measurers
   K. Chambers, S. Chastel, T. de Boer, L. Denneau, J. Fairlamb, H.
   Flewelling, M. Huber, C.-C. Lin, E. Magnier, Y. Ramanjooloo, R. Wainscoat,
   R. Weryk. 1.8-m Ritchey-Chrétien + CCD.
(L01) Višnjan Observatory, Tičan  (N45.290897 E13.749300)  Croatia.
   Observers K. Korlević, D. Pujagic, V. Dobos. Measurers D. Pujagic, K.
   Korlević. 1.0-m f/2.9 reflector + CCD.

Orbital elements:  P221oBE
   Perihelion 2024 Mar 6.50367 +/- 9.67 TT = 12:05:17 (JD 2460376.00367)
Epoch 2024 Nov  1.0 TT = JDT 2460615.5   Earth MOID: 0.7906      AutoNEOCP
M  84.40731853 +/- 5.0              (J2000 ecliptic)
n   0.35243679 +/- 0.0123           Peri.  102.57679 +/- 2.4
a   1.98494533 +/- 0.0463           Node   195.93865 +/- 0.9
e   0.1523007 +/- 0.0307            Incl.   22.46673 +/- 1.2
P   2.79655                H 19.26  G  0.15   U  9.8
q 1.68263674 +/- 0.0255    Q 2.28725392 +/- 0.113
From 14 observations 2024 Oct. 30-Nov. 1 (43.5 hr); mean residual 0".20
Residuals in arcseconds: 
241030 F52  .07-  .01-    241030 L01  .23-  .12+    241031 691  .00   .19+    
241030 F52  .07+  .12+    241030 L01  .45-  .14-    241101 691  .35-  .13-    
241030 F52  .07+  .11-    241030 L01  .12+  .18-    241101 691  .11+  .37+    
241030 F51  .06+  .15+    241031 691  .28+  .08+    241101 691  .26+  .35-    
241030 F51  .08-  .15-    241031 691  .14+  .13+    

Ephemerides (geocentric):
Date (UTC) HH   RA             Dec           delta  r     elong  mag " sig PA
---- --------  ------------   ------------  ------ ------ -----  --- --------
2024 11 01 08  02 47 18.247   -02 37 28.13  1.0341 2.0020 162.1 21.4 .411 127
2024 11 01 09  02 47 15.667   -02 38 13.77  1.0343 2.0021 162.1 21.4 .436 125
2024 11 01 10  02 47 13.087   -02 38 59.38  1.0344 2.0022 162.1 21.4 .462 124
2024 11 01 11  02 47 10.507   -02 39 44.95  1.0345 2.0022 162.1 21.4 .489 123
2024 11 01 12  02 47 07.927   -02 40 30.48  1.0346 2.0023 162.1 21.4 .517 121
2024 11 01 13  02 47 05.347   -02 41 15.98  1.0347 2.0024 162.1 21.4 .546 120
2024 11 01 14  02 47 02.767   -02 42 01.43  1.0349 2.0025 162.1 21.4 .576 119
2024 11 01 15  02 47 00.188   -02 42 46.85  1.0350 2.0025 162.0 21.4 .607 118
2024 11 01 16  02 46 57.608   -02 43 32.23  1.0351 2.0026 162.0 21.4 .639 118
2024 11 01 17  02 46 55.028   -02 44 17.57  1.0352 2.0027 162.0 21.4 .671 117
2024 11 01 18  02 46 52.449   -02 45 02.87  1.0353 2.0028 162.0 21.4 .705 116
2024 11 01 19  02 46 49.869   -02 45 48.13  1.0355 2.0028 162.0 21.4 .739 116
2024 11 01 20  02 46 47.290   -02 46 33.36  1.0356 2.0029 162.0 21.4 .775 115
2024 11 01 21  02 46 44.710   -02 47 18.54  1.0357 2.0030 162.0 21.4 .811 114
2024 11 01 22  02 46 42.131   -02 48 03.69  1.0358 2.0031 162.0 21.4 .848 114
2024 11 01 23  02 46 39.552   -02 48 48.80  1.0359 2.0032 161.9 21.4 .885 113
2024 11 02 00  02 46 36.973   -02 49 33.87  1.0361 2.0032 161.9 21.4 .924 113
2024 11 02 01  02 46 34.394   -02 50 18.90  1.0362 2.0033 161.9 21.4 .964 113
2024 11 02 02  02 46 31.815   -02 51 03.90  1.0363 2.0034 161.9 21.4 1.00 112
2024 11 02 03  02 46 29.236   -02 51 48.85  1.0364 2.0035 161.9 21.4 1.04 112
2024 11 02 04  02 46 26.658   -02 52 33.76  1.0366 2.0035 161.9 21.4 1.09 111
2024 11 02 05  02 46 24.079   -02 53 18.64  1.0367 2.0036 161.9 21.5 1.13 111
2024 11 02 06  02 46 21.501   -02 54 03.48  1.0368 2.0037 161.9 21.5 1.17 111
2024 11 02 07  02 46 18.923   -02 54 48.27  1.0370 2.0038 161.8 21.5 1.22 111
2024 11 02 08  02 46 16.345   -02 55 33.03  1.0371 2.0038 161.8 21.5 1.26 110
2024 11 02 09  02 46 13.767   -02 56 17.75  1.0372 2.0039 161.8 21.5 1.31 110
2024 11 02 10  02 46 11.189   -02 57 02.43  1.0373 2.0040 161.8 21.5 1.35 110
2024 11 02 11  02 46 08.612   -02 57 47.07  1.0375 2.0041 161.8 21.5 1.40 110
2024 11 02 12  02 46 06.035   -02 58 31.67  1.0376 2.0042 161.8 21.5 1.45 109
2024 11 02 13  02 46 03.458   -02 59 16.23  1.0377 2.0042 161.8 21.5 1.50 109
2024 11 02 14  02 46 00.881   -03 00 00.75  1.0379 2.0043 161.7 21.5 1.55 109
2024 11 02 15  02 45 58.305   -03 00 45.23  1.0380 2.0044 161.7 21.5 1.60 109
2024 11 02 16  02 45 55.728   -03 01 29.67  1.0381 2.0045 161.7 21.5 1.65 109
2024 11 02 17  02 45 53.152   -03 02 14.07  1.0383 2.0045 161.7 21.5 1.70 109
2024 11 02 18  02 45 50.576   -03 02 58.43  1.0384 2.0046 161.7 21.5 1.75 109
2024 11 02 19  02 45 48.001   -03 03 42.75  1.0385 2.0047 161.7 21.5 1.81 108
2024 11 02 20  02 45 45.426   -03 04 27.03  1.0386 2.0048 161.6 21.5 1.86 108
2024 11 02 21  02 45 42.851   -03 05 11.27  1.0388 2.0048 161.6 21.5 1.92 108
2024 11 02 22  02 45 40.276   -03 05 55.47  1.0389 2.0049 161.6 21.5 1.97 108
2024 11 02 23  02 45 37.701   -03 06 39.63  1.0391 2.0050 161.6 21.5 2.03 108
2024 11 03 00  02 45 35.127   -03 07 23.75  1.0392 2.0051 161.6 21.5 2.09 108
2024 11 03 01  02 45 32.553   -03 08 07.83  1.0393 2.0051 161.6 21.5 2.14 108
2024 11 03 02  02 45 29.980   -03 08 51.87  1.0395 2.0052 161.5 21.5 2.20 108
2024 11 03 03  02 45 27.406   -03 09 35.86  1.0396 2.0053 161.5 21.5 2.26 108
2024 11 03 04  02 45 24.833   -03 10 19.82  1.0397 2.0054 161.5 21.5 2.32 108
2024 11 03 05  02 45 22.261   -03 11 03.74  1.0399 2.0055 161.5 21.5 2.38 108
2024 11 03 06  02 45 19.689   -03 11 47.61  1.0400 2.0055 161.5 21.5 2.44 108
2024 11 03 07  02 45 17.117   -03 12 31.45  1.0401 2.0056 161.5 21.5 2.50 108